Location: Nitra
(0.0000°N, 18.0833°E)
Time: 05:39:44
(UTC+01:00)

Feng Yun 1-1 Rocket - Pass Details

Date: 24 January 2021
Orbit: 830 x 933 km, 99.2° (Epoch: 04 March)

Event Time Altitude Azimuth Distance (km) Brightness Sun altitude
Rises 18:26:08 0° 165° (SSE) 3,375 7.4 -6.2°
Reaches altitude 10° 18:28:29 10° 164° (SSE) 2,436 6.7 -6.8°
Maximum altitude 18:33:52 82° 77° (ENE) 842 4.1 -8.0°
Drops below altitude 10° 18:39:15 10° 350° (N) 2,439 6.5 -9.3°
Sets 18:41:37 0° 349° (N) 3,379 7.2 -9.9°
